Weather History for Lacon, IL

Change the Weather History Date:

Tuesday, December 18, 2012

  Actual Average (KPIA) Record (KPIA)
Temperature  
Mean Temperature 41 °F 28 °F  
Max Temperature 47 °F 35 °F 62 °F (1939)
Min Temperature 35 °F 20 °F -12 °F (1985)
Degree Days  
Heating Degree Days 24 38  
Month to date heating degree days 625  
Since 1 July heating degree days 1773  
Cooling Degree Days 0 0  
Month to date cooling degree days 0  
Year to date cooling degree days 1039  
Moisture  
Dew Point 34 °F    
Average Humidity 78    
Maximum Humidity 85    
Minimum Humidity 68    
Precipitation  
Precipitation 0.00 in 0.07 in 2.60 in (1895)
Month to date precipitation 1.53  
Year to date precipitation 35.60  
Snow  
Snow 0.00 in 0.20 in 4.20 in (1929)
Month to date snowfall 3.8  
Since 1 July snowfall 4.9  
Snow Depth -    
Sea Level Pressure  
Sea Level Pressure 29.70 in    
Wind  
Wind Speed 6 mph (SSW)    
Max Wind Speed 17 mph    
Max Gust Speed 26 mph    
Visibility 7 miles    
Events      
T = Trace of Precipitation, MM = Missing Value Source: NWS Daily Summary

Daily Weather History Graph

Daily Weather History Graph

Search for Another Location

Airport:

Trip Planner

Search our weather history database for the weather conditions in past years. The results will help you decide how hot, cold, wet, or windy it might be!

Date:

Astronomy

Dec. 18, 2012 Rise Set
Actual Time 7:17 AM CST 4:31 PM CST
Civil Twilight 6:46 AM CST 5:02 PM CST
Nautical Twilight 6:11 AM CST 5:37 PM CST
Astronomical Twilight 5:38 AM CST 6:10 PM CST
Moon 10:54 AM CST (12/18) 11:00 PM CST (12/18)
Length of Visible Light 10h 15m
Length of Day
9h 13m
Waxing Crescent, 35% of the Moon is Illuminated
Dec 18
Waxing Crescent
Dec 19
First Quarter
Dec 28
Full
Jan 4
Last Quarter
Jan 11
New

Hourly Weather History & Observations

Time (CST) Temp. Windchill Dew Point Humidity Pressure Visibility Wind Dir Wind Speed Gust Speed Precip Events Conditions
12:15 AM 39.2 °F 37.0 °F 32.0 °F 75% 29.76 in 7.0 mi WSW 3.5 mph - N/A   Overcast
12:35 AM 39.2 °F 37.0 °F 32.0 °F 75% 29.76 in 7.0 mi WSW 3.5 mph - N/A   Overcast
12:55 AM 39.2 °F - 32.0 °F 75% 29.77 in 7.0 mi Calm Calm - N/A   Overcast
1:15 AM 39.2 °F 37.0 °F 32.0 °F 75% 29.78 in 10.0 mi SW 3.5 mph - N/A   Overcast
1:35 AM 39.2 °F - 32.0 °F 75% 29.77 in 7.0 mi Calm Calm - N/A   Overcast
1:55 AM 39.4 °F 35.2 °F 32.4 °F 76% 29.77 in 7.0 mi SSW 5.8 mph - N/A   Overcast
2:15 AM 39.2 °F - 32.5 °F 77% 29.77 in 7.0 mi Calm Calm - N/A   Overcast
2:35 AM 39.2 °F - 32.9 °F 78% 29.76 in 7.0 mi Calm Calm - N/A   Overcast
2:55 AM 39.2 °F - 32.9 °F 78% 29.76 in 7.0 mi Calm Calm - N/A   Overcast
3:15 AM 39.2 °F - 33.1 °F 79% 29.76 in 7.0 mi Calm Calm - N/A   Overcast
3:35 AM 39.6 °F 36.3 °F 33.1 °F 78% 29.75 in 7.0 mi SSW 4.6 mph - N/A   Overcast
3:55 AM 39.7 °F - 33.3 °F 78% 29.75 in 7.0 mi Calm Calm - N/A   Overcast
4:15 AM 39.7 °F - 33.8 °F 79% 29.75 in 5.0 mi Calm Calm - N/A   Haze
4:35 AM 39.7 °F - 33.8 °F 79% 29.75 in 5.0 mi Calm Calm - N/A   Haze
4:55 AM 39.6 °F - 33.8 °F 80% 29.74 in 5.0 mi Calm Calm - N/A   Haze
5:15 AM 39.6 °F - 33.8 °F 80% 29.75 in 5.0 mi Calm Calm - N/A   Haze
5:35 AM 39.7 °F 36.5 °F 34.3 °F 81% 29.75 in 5.0 mi ESE 4.6 mph - N/A   Haze
5:55 AM 39.6 °F 36.3 °F 34.3 °F 82% 29.75 in 5.0 mi ESE 4.6 mph - N/A   Haze
6:15 AM 39.6 °F 34.7 °F 34.7 °F 83% 29.75 in 5.0 mi ESE 6.9 mph - N/A   Haze
6:35 AM 39.6 °F 35.4 °F 34.7 °F 83% 29.75 in 5.0 mi ESE 5.8 mph - N/A   Haze
6:55 AM 40.1 °F 36.1 °F 35.2 °F 83% 29.74 in 4.0 mi SE 5.8 mph - N/A   Haze
7:15 AM 39.7 °F 35.6 °F 35.6 °F 85% 29.74 in 4.0 mi SE 5.8 mph - N/A   Overcast
7:35 AM 39.7 °F 35.6 °F 35.6 °F 85% 29.73 in 3.0 mi ESE 5.8 mph - N/A   Overcast
7:55 AM 40.1 °F 35.3 °F 36.0 °F 85% 29.73 in 3.0 mi ESE 6.9 mph - N/A   Mostly Cloudy
8:15 AM 40.5 °F 34.6 °F 35.8 °F 83% 29.72 in 3.0 mi SE 9.2 mph - N/A   Haze
8:35 AM 41.2 °F 35.0 °F 36.1 °F 82% 29.73 in 4.0 mi SE 10.4 mph - N/A   Haze
8:55 AM 42.3 °F 35.9 °F 36.5 °F 80% 29.72 in 4.0 mi SE 11.5 mph - N/A   Haze
9:15 AM 42.1 °F 36.1 °F 36.3 °F 80% 29.72 in 4.0 mi SE 10.4 mph - N/A   Haze
9:35 AM 42.8 °F 36.2 °F 36.7 °F 79% 29.70 in 4.0 mi SE 12.7 mph - N/A   Haze
9:55 AM 43.5 °F 37.5 °F 37.4 °F 79% 29.69 in 4.0 mi SE 11.5 mph - N/A   Haze
10:15 AM 44.1 °F 37.1 °F 37.8 °F 78% 29.68 in 4.0 mi SE 15.0 mph 19.6 mph N/A   Haze
10:35 AM 44.6 °F 38.1 °F 38.1 °F 78% 29.66 in 4.0 mi SE 13.8 mph 19.6 mph N/A   Haze
10:55 AM 45.1 °F 38.4 °F 38.3 °F 77% 29.65 in 4.0 mi SE 15.0 mph 18.4 mph N/A   Haze
11:15 AM - - - N/A% 29.63 in 4.0 mi SE 15.0 mph - N/A   Haze
11:35 AM - - - N/A% 29.60 in 5.0 mi SSE 17.3 mph 24.2 mph N/A   Unknown
11:55 AM 41.4 °F 33.3 °F 35.4 °F 79% 29.60 in 5.0 mi SSE 16.1 mph 19.6 mph N/A   Haze
12:15 PM 41.4 °F 33.6 °F 35.4 °F 79% 29.58 in 5.0 mi SSE 15.0 mph 23.0 mph N/A   Haze
12:35 PM 42.3 °F 36.3 °F 35.8 °F 78% 29.58 in 5.0 mi South 10.4 mph 19.6 mph N/A   Haze
12:55 PM 43.0 °F 35.7 °F 35.8 °F 76% 29.55 in 7.0 mi SSE 15.0 mph 23.0 mph N/A   Unknown
1:15 PM 43.9 °F 36.5 °F 35.8 °F 73% 29.57 in 7.0 mi South 16.1 mph 23.0 mph N/A   Unknown
1:35 PM 45.5 °F 40.3 °F 36.5 °F 71% 29.55 in 7.0 mi South 10.4 mph 21.9 mph N/A   Unknown
1:55 PM 46.4 °F 40.7 °F 36.3 °F 68% 29.57 in 10.0 mi SSW 12.7 mph 21.9 mph N/A   Unknown
2:15 PM 46.6 °F - 36.9 °F 69% 29.55 in 10.0 mi South 13.8 mph 20.7 mph N/A   Unknown
2:35 PM 47.1 °F - 37.4 °F 69% 29.55 in 10.0 mi South 10.4 mph - N/A   Unknown
2:55 PM 46.6 °F - 37.6 °F 71% 29.55 in 10.0 mi SSW 5.8 mph 9.2 mph N/A   Unknown
3:15 PM 46.4 °F 44.3 °F 37.4 °F 71% 29.56 in 10.0 mi SSW 4.6 mph - N/A   Overcast
3:35 PM 46.8 °F - 37.4 °F 70% 29.56 in 10.0 mi Calm Calm - N/A   Overcast
3:55 PM 46.8 °F - 37.4 °F 70% 29.56 in 10.0 mi Calm Calm - N/A   Overcast
4:15 PM 46.4 °F - 37.2 °F 70% 29.56 in 10.0 mi Calm Calm - N/A   Overcast
4:35 PM 45.5 °F - 37.6 °F 74% 29.57 in 10.0 mi Calm Calm - N/A   Overcast
4:55 PM 47.3 °F - 37.6 °F 69% 29.59 in 10.0 mi West 6.9 mph - N/A   Overcast
5:15 PM 45.5 °F 40.3 °F 37.9 °F 75% 29.61 in 10.0 mi WNW 10.4 mph - N/A   Mostly Cloudy
5:35 PM 45.5 °F 38.6 °F 36.9 °F 72% 29.63 in 10.0 mi WSW 16.1 mph 20.7 mph N/A   Overcast
5:55 PM 42.4 °F 35.3 °F 34.0 °F 72% 29.66 in 10.0 mi West 13.8 mph 24.2 mph N/A   Overcast
6:15 PM 39.7 °F 30.9 °F 32.0 °F 74% 29.68 in 10.0 mi West 17.3 mph 26.5 mph N/A   Overcast
6:35 PM 38.8 °F 30.4 °F 32.0 °F 76% 29.70 in 10.0 mi WSW 15.0 mph 23.0 mph N/A   Unknown
6:55 PM 38.3 °F 32.5 °F 32.0 °F 78% 29.70 in 7.0 mi WSW 8.1 mph 16.1 mph N/A   Unknown
7:15 PM 38.3 °F 31.4 °F 32.2 °F 79% 29.72 in 7.0 mi WSW 10.4 mph 19.6 mph N/A   Unknown
7:35 PM 37.9 °F 30.5 °F 33.1 °F 83% 29.74 in 7.0 mi West 11.5 mph 20.7 mph N/A   Unknown
7:55 PM 37.8 °F 31.3 °F 32.9 °F 83% 29.75 in 7.0 mi WSW 9.2 mph - N/A   Unknown
8:15 PM 37.9 °F 30.5 °F 33.1 °F 83% 29.76 in 7.0 mi West 11.5 mph 16.1 mph N/A   Unknown
8:35 PM 37.9 °F 31.5 °F 33.1 °F 83% 29.77 in 7.0 mi West 9.2 mph - N/A   Unknown
8:55 PM 37.9 °F 30.0 °F 32.7 °F 81% 29.78 in 7.0 mi WSW 12.7 mph 20.7 mph N/A   Unknown
9:15 PM 37.8 °F 30.2 °F 32.2 °F 80% 29.78 in 7.0 mi West 11.5 mph 17.3 mph N/A   Unknown
9:35 PM 37.6 °F 28.8 °F 32.4 °F 81% 29.80 in 7.0 mi WNW 15.0 mph 20.7 mph N/A   Unknown
9:55 PM 37.2 °F 28.7 °F 32.0 °F 81% 29.82 in 7.0 mi WNW 13.8 mph 21.9 mph N/A   Unknown
10:15 PM 36.5 °F 28.7 °F 32.0 °F 84% 29.83 in 7.0 mi WNW 11.5 mph - N/A   Unknown
10:35 PM 36.5 °F 28.2 °F 32.0 °F 84% 29.84 in 7.0 mi WNW 12.7 mph - N/A   Unknown
10:55 PM 36.1 °F 27.7 °F 31.5 °F 83% 29.84 in 10.0 mi WNW 12.7 mph 18.4 mph N/A   Unknown
11:15 PM 35.8 °F 27.8 °F 31.6 °F 85% 29.86 in 10.0 mi WNW 11.5 mph - N/A   Overcast
11:35 PM 35.6 °F 26.6 °F 31.1 °F 84% 29.86 in 10.0 mi NW 13.8 mph 20.7 mph N/A   Overcast
11:55 PM 35.6 °F 27.1 °F 31.1 °F 84% 29.87 in 10.0 mi WNW 12.7 mph 16.1 mph N/A   Overcast